Regional Weather Roundup
Issued by NWS

Home | Current Version | Previous Version | Text Only | Print | Product List | Glossary Off
Versions: 1 2 3 4 5 6 7 8 9 10 11 12 13 14 15 16 17 18 19 20 21 22 23 24 25 26 27 28 29 30 31 32 33 34 35 36 37 38 39 40 41 42 43 44 45 46 47 48 49 50

000
ASUS43 KMPX 181401
RWRMN
WEATHER ROUNDUP FOR MINNESOTA
NATIONAL WEATHER SERVICE TWIN CITIES/CHANHASSEN MN
900 AM CDT SAT APR 18 2015


NOTE: "FAIR" INDICATES FEW OR NO CLOUDS BELOW 12,000 FEET WITH NO
SIGNIFICANT WEATHER AND/OR OBSTRUCTIONS TO VISIBILITY. N/A MEANS
CURRENT SKY AND/OR WEATHER CONDITIONS ARE NOT AVAILABLE.

MNZ060>063-068>070-181500-
   Twin Cities Metro

CITY           SKY/WX    TMP DP  RH WIND       PRES   REMARKS
TWIN CITIES    PTSUNNY   56  31  38 E15       30.09F
ST PAUL        MOSUNNY   55  32  41 E10       30.11F
CRYSTAL        SUNNY     55  32  41 E10       30.09F
LAKEVILLE      MOSUNNY   54  36  50 E10       30.08F
EDEN PRAIRIE   MOSUNNY   55  31  39 E14       30.07F
SOUTH ST PAUL  MOSUNNY   57  30  36 E9        30.10S
LAKE ELMO      FAIR      54  34  47 E10       30.12S
$$
MNZ001>005-007-008-013>017-022>024-027-028-181500-
   Northwest Minnesota

CITY           SKY/WX    TMP DP  RH WIND       PRES   REMARKS
BEMIDJI        SUNNY     43  31  63 E14G20    30.15F
HALLOCK        SUNNY     45  30  57 SE15      30.14F
ROSEAU         SUNNY     45  34  65 E12       30.17F
WARROAD        SUNNY     41  34  75 E8        30.19F
THIEF RVR FALL SUNNY     43  30  61 E15       30.15S
CROOKSTON      SUNNY     45  32  61 E15       30.13F
FOSSTON        SUNNY     45  30  57 E12       30.13S
DETROIT LAKES  MOSUNNY   48  32  53 SE14      30.11F
MOORHEAD       SUNNY     54  28  37 SE8       30.09F
PARK RAPIDS    MOSUNNY   48  30  49 E12G23    30.13S
MAHNOMEN       FAIR      47  31  54 SE14      30.11S
$$
MNZ006-009>011-018-025>026-181500-
   North Central Minnesota

CITY           SKY/WX    TMP DP  RH WIND       PRES   REMARKS
BAUDETTE       SUNNY     42  33  70 E13       30.19F
FLAG ISLAND    SUNNY     39  30  70 SE6       30.19F
INTL FALLS     SUNNY     42  32  67 SE14      30.22S
WASKISH        SUNNY     43  34  70 E12G21    30.17F
BIG FORK       SUNNY     43  30  61 E10G16    30.20S
LONGVILLE      SUNNY     45  30  57 E8        30.15F
GRAND RAPIDS   SUNNY     43  28  56 E10G17    30.18F
ORR            SUNNY     41  28  60 SE6       30.19S
COOK           SUNNY     43  30  61 E8        30.22S
WALKER         FAIR      42  32  67 E10       30.16S
$$
MNZ012-019>021-037-181500-
   Northeast Minnesota

CITY           SKY/WX    TMP DP  RH WIND       PRES   REMARKS
DULUTH         MOSUNNY   41  31  67 E17G33    30.21S
ELY            SUNNY     39  28  65 E7        30.22F
HIBBING        SUNNY     43  29  57 E10       30.21R
EVELETH        SUNNY     43  32  65 SE8       30.22R
DULUTH HARBOR  SUNNY     39  36  87 NE16      30.24S
TWO HARBORS    SUNNY     45  36  70 E15G24    30.23R
SILVER BAY     SUNNY     43  34  70 NE10G20   30.24R
GRAND MARAIS     N/A     39  33  79 S6        30.27R
G MARAIS ARPRT SUNNY     41  27  56 NE5       30.23R
$$
MNZ029>031-032-039>041-046>048-054>057-064-181500-
   West Central Minnesota

CITY           SKY/WX    TMP DP  RH WIND       PRES   REMARKS
FERGUS FALLS   MOSUNNY   52  25  35 E12       30.08F
WHEATON        MOSUNNY   48  28  46 SE3       30.08F
MORRIS         MOSUNNY   55  28  35 E22       30.05S
ALEXANDRIA     MOSUNNY   52  28  39 E18       30.09S
ELBOW LAKE     FAIR      51  31  46 E20G25    30.06S
WADENA         MOSUNNY   46  30  53 E12       30.10F
GLENWOOD       MOSUNNY   52  28  40 E18       30.08F
APPLETON       SUNNY     55  28  35 E13       30.05S
BENSON         MOSUNNY   54  27  35 SE10      30.05F
ORTONVILLE     SUNNY     52  28  40 SE7       30.06S
MADISON        MOSUNNY   54  28  37 SE8       30.05F
WILLMAR        FAIR      55  30  38 E18       30.07F
$$
MNZ033>034-036-042>043-049>051-058-059-181500-
   Central Minnesota

CITY           SKY/WX    TMP DP  RH WIND       PRES   REMARKS
ST CLOUD       SUNNY     50  32  50 E9        30.11S
SAUK CENTRE    FAIR      50  31  48 E15G22    30.09S
PAYNESVILLE    SUNNY     50  30  46 NE12      30.09S
AITKIN         SUNNY     48  34  57 E9        30.15S
PINE RIVER     SUNNY     45  32  61 E13       30.18R
BRAINERD       SUNNY     46  31  55 E10G18    30.14F
STAPLES        MOSUNNY   48  28  46 E8        30.12S
LONG PRAIRIE   FAIR      48  30  49 E14G23    30.11S
LITTLE FALLS   SUNNY     48  30  49 E8        30.12S
LITCHFIELD     SUNNY     55  30  38 E14       30.08
BUFFALO        MOSUNNY   53  31  42 E13G18    30.11S
MAPLE LAKE     MOSUNNY   54  34  46 E10G17    30.10S
$$
MNZ037-044-045-052-053-181500-
   East Central Minnesota

CITY           SKY/WX    TMP DP  RH WIND       PRES   REMARKS
PRINCETON      SUNNY     54  34  47 E8        30.12F
MORA           SUNNY     48  32  53 E9        30.16F
CAMBRIDGE      SUNNY     54  36  50 E7        30.11S
RUSH CITY      SUNNY     50  34  54 E7        30.13F
MOOSE LAKE     SUNNY     45  32  61 E9G17     30.16S
HINCKLEY       FAIR      48  34  57 E12       30.15F
CLOQUET        SUNNY     43  30  61 E17G28    30.19F
MCGREGOR       SUNNY     45  32  61 E17G23    30.17S
$$
MNZ071>073-080-081-089-090-097-098-181500-
   Southwest Minnesota

CITY           SKY/WX    TMP DP  RH WIND       PRES   REMARKS
MONTEVIDEO     MOSUNNY   55  30  38 SE16      30.05F
GRANITE FALLS  MOSUNNY   54  30  40 E12G17    30.06S
CANBY          MOSUNNY   53  28  39 E7        30.05F
MARSHALL       MOSUNNY   54  27  35 SE8       30.04F
REDWOOD FALLS  MOSUNNY   56  30  37 E12       30.04F
OLIVIA         MOSUNNY   54  30  40 E14G20    30.04S
PIPESTONE      CLOUDY    59  19  21 E17       30.00F
WINDOM         PTSUNNY   55  28  35 NE10      30.03S
WORTHINGTON    CLOUDY    57  32  38 NE9       30.01F
JACKSON        CLOUDY    61  30  31 E13       30.01F
TRACY          MOSUNNY   55  28  35 E8        30.04F
SLAYTON        PTSUNNY   57  25  28 E13       30.03F
$$
MNZ065>067-074>077-082>085-091>093-181500-
   South Central Minnesota

CITY           SKY/WX    TMP DP  RH WIND       PRES   REMARKS
MANKATO        MOSUNNY   57  30  35 N3        30.05S
NEW ULM        PTSUNNY   54  30  40 E9        30.04S
ST JAMES       PTSUNNY   61  30  31 E14       30.03F
FAIRMONT       PTSUNNY   57  34  41 E10       30.01F
GLENCOE        MOSUNNY   56  35  43 E15       30.06F
FARIBAULT      MOSUNNY   57  32  38 E13G21    30.06F
OWATONNA       MOSUNNY   57  32  38 E18G24    30.05F
ALBERT LEA     PTSUNNY   59  36  41 E9        30.04F
$$
MNZ078>079-086>088-094>096-181500-
   Southeast Minnesota

CITY           SKY/WX    TMP DP  RH WIND       PRES   REMARKS
ROCHESTER      MOSUNNY   56  36  47 E12       30.08F
RED WING       MOSUNNY   57  28  33 E15G22    30.08F
STANTON        MOSUNNY   59  31  34 E15G21    30.06F
DODGE CENTER   MOSUNNY   55  36  47 E14       30.06F
WINONA         MOSUNNY   59  36  41 SE10      30.09F
AUSTIN         PTSUNNY   57  37  47 E9        30.05S
PRESTON        PTSUNNY   55  35  47 E12       30.07S
$$
ABBREVIATIONS USED IN REMARKS
   TC - TEMPERATURES IN CELSIUS
  WCI - WIND CHILL INDEX
   HX - HEAT INDEX
  VSB - VISIBILITY
$$



USA.gov is the U.S. government's official web portal to all federal, state and local government web resources and services.